[[{"header":{"parameterUnit":"m.s-1","parameterCategory":1,"la1":30.2991,"la2":30.254,"lo1":-89.0895,"lo2":-89.0444,"dy":0.0017,"dx":0.0017,"nx":28,"ny":28,"refTime":"2023-10-23T03:00:00:Z","depth":0,"parameterNumber":2,"parameterNumberName":"U-component_of_WINDS"},"data":[0,0,0,0,0,0,0,0,0,0,0,0,0,0,0,0,0,0,0,0,0,0,0,0,0,0,0,0,0,0,0,0,0,0,0,0,0,0,0,0,0,0,0,0,0,0,0,0,0,0,0,0,0,0,0,0,0,0,-3.8519,-3.8519,0,-3.8522,-3.8522,-3.8522,-3.8403,-3.8399,-3.8396,-3.8393,-3.8397,-3.84,-3.8403,0,0,0,0,0,0,0,0,0,0,0,0,0,-3.8415,-3.8417,-3.8519,-3.8519,-3.852,-3.8522,-3.8522,-3.8522,-3.8403,-3.8399,-3.8395,-3.8392,-3.8396,-3.84,-3.8404,0,0,0,0,0,0,0,0,0,0,0,0,0,-3.8443,-3.8418,-3.8519,-3.846,-3.8455,-3.8522,-3.8522,-3.8522,-3.8404,-3.8399,-3.8394,-3.839,-3.8395,-3.84,-3.8404,-3.8528,0,0,-3.8418,-3.842,0,0,0,0,0,0,0,0,-3.8442,-3.8447,-3.8469,-3.8465,-3.8459,-3.8457,-3.8486,-3.8524,-3.8405,-3.8424,-3.8393,-3.8388,-3.8421,-3.8423,-3.8434,-3.8528,-3.8528,-3.8419,-3.8422,-3.8424,-3.8425,0,0,0,0,0,0,0,-3.844,-3.8446,-3.852,-3.847,-3.8463,-3.8435,-3.8434,-3.8493,-3.8449,-3.8421,-3.8413,-3.8415,-3.8418,-3.843,-3.8434,-3.8528,-3.8419,-3.8423,-3.8426,-3.8427,-3.8725,-3.873,0,0,0,0,0,0,-3.8446,-3.8445,-3.852,-3.852,-3.8438,-3.8441,-3.8439,-3.8462,-3.8448,-3.8441,-3.8419,-3.8409,-3.8425,-3.8428,-3.8433,-3.8578,-3.8423,-3.8428,-3.843,-3.872,-3.8726,-3.8732,0,0,0,0,0,0,-3.8444,-3.8453,-3.852,-3.8481,-3.8487,-3.8447,-3.8475,-3.8465,-3.8477,-3.8446,-3.8438,-3.844,-3.8421,-3.8427,-3.8505,-3.8576,-3.843,-3.8434,-3.8714,-3.8722,-3.8729,-3.8868,0,0,0,0,0,0,-3.8441,-3.8453,-3.8499,-3.8483,-3.849,-3.8592,-3.8479,-3.8468,-3.8485,-3.8473,-3.8463,-3.8457,-3.8418,-3.8499,-3.851,-3.858,-3.8438,-3.8708,-3.8718,-3.8727,-3.8857,-3.8879,-3.8898,0,0,0,0,0,-3.8438,-3.8538,-3.8502,-3.8512,-3.8546,-3.8596,-3.86,-3.8552,-3.8492,-3.8538,-3.8518,-3.8457,-3.8567,-3.8508,-3.8519,-3.8592,-3.8703,-3.8715,-3.8726,-3.8847,-3.8875,-3.8898,0,0,0,0,0,0,-3.8564,-3.8535,-3.8495,-3.8592,-3.8598,-3.8576,-3.8632,-3.8583,-3.8606,-3.8593,-3.8533,-3.8532,-3.8621,-3.8614,-3.8549,-3.8711,-3.8624,-3.8639,-3.8713,-3.8738,-3.8759,-3.8759,-3.8441,0,0,0,0,0,-3.8604,-3.8646,-3.8618,-3.8707,-3.8712,-3.8673,-3.8693,-3.8655,-3.8659,-3.8661,-3.8646,-3.8652,-3.8688,-3.8713,-3.8744,-3.8855,-3.8852,-3.8911,-3.8932,-3.8949,-3.8962,-3.9022,-3.9048,-3.877,-3.877,-3.877,0,0,-3.8685,-3.8674,-3.8705,-3.8733,-3.8732,-3.8779,-3.8675,-3.8728,-3.8762,-3.8669,-3.8742,-3.8732,-3.8735,-3.8831,-3.8873,-3.8828,-3.9038,-3.8964,-3.8978,-3.8981,-3.9036,-3.9063,-3.9086,-3.8778,-3.8776,-3.8775,0,0,-3.8857,-3.8853,-3.8927,-3.8929,-3.893,-3.8904,-3.8922,-3.8908,-3.8898,-3.8971,-3.8902,-3.8942,-3.9005,-3.901,-3.9021,-3.9198,-3.9143,-3.921,-3.9319,-3.9378,-3.94,-3.9419,-3.9482,-3.9506,-3.9223,-3.9223,-3.9223,0,-3.8959,-3.9025,-3.8972,-3.903,-3.9045,-3.8962,-3.9038,-3.9042,-3.9054,-3.9067,-3.9017,-3.9095,-3.9091,-3.9187,-3.9231,-3.9242,-3.9262,-3.921,-3.9401,-3.9419,-3.9436,-3.9496,-3.9521,-3.9231,-3.923,-3.923,-3.9229,0,-3.915,-3.9197,-3.9257,-3.927,-3.9292,-3.9359,-3.9317,-3.9345,-3.9307,-3.9286,-3.9362,-3.9355,-3.9384,-3.9404,-3.9367,-3.9496,-3.9468,-3.9411,-3.9322,-3.9472,-3.9527,-3.955,-3.9243,-3.924,-3.9238,-3.9236,0,0,-3.94,-3.9384,-3.9407,-3.9413,-3.9409,-3.9445,-3.9509,-3.9537,-3.9563,-3.9574,-3.9627,-3.9683,-3.9629,-3.9642,-3.9605,-3.9657,-3.9799,-3.9593,-3.9592,-3.9632,-3.9942,-3.9985,-4.0013,-3.9763,-3.9767,-3.977,-3.9942,0,-3.9568,-3.9674,-3.9629,-3.9741,-3.9785,-3.9708,-3.9764,-3.9768,-3.9751,-3.9786,-3.9767,-3.9808,-3.9734,-3.9742,-3.9789,-3.9771,-3.986,-3.9758,-3.9812,-3.9814,-3.9813,-4.0041,-4.0087,-4.0249,-3.9963,-3.9966,-3.9969,0,-3.9776,-3.9797,-3.9913,-3.9902,-3.9919,-3.997,-3.9992,-4.0027,-4.0031,-4.0015,-4.0031,-3.9982,-4.0045,-3.9958,-4.0044,-3.9976,-3.9995,-3.999,-3.9995,-3.9998,-3.9901,-4.0051,-4.0299,-4.0324,-4.0003,-4.0,-3.9998,0,-3.9948,-4.0005,-4.0081,-4.0089,-4.0078,-4.0116,-4.0114,-4.0113,-4.0133,-4.0153,-4.0166,-4.0194,-4.0209,-4.0233,-4.0194,-4.0133,-4.0287,-4.0195,-4.0276,-4.0277,-4.0311,-4.0309,-4.0566,-4.0324,-4.0324,-4.0323,-4.0323,0,-4.014,-4.0214,-4.0159,-4.0206,-4.0288,-4.0236,-4.0318,-4.0307,-4.0308,-4.0353,-4.0288,-4.0332,-4.0278,-4.0317,-4.0288,-4.0364,-4.0372,-4.0361,-4.0352,-4.0367,-4.0368,-4.0379,-4.0366,-4.0329,-4.0328,-4.0327,-4.0326,0,-4.0345,-4.0311,-4.039,-4.0374,-4.0372,-4.0433,-4.0419,-4.0463,-4.0442,-4.05,-4.051,-4.0477,-4.052,-4.0484,-4.0525,-4.0505,-4.0607,-4.0582,-4.0606,-4.0599,-4.0682,-4.0675,-4.0954,-4.0989,-4.0725,-4.0727,-4.0729,0,-4.0469,-4.0525,-4.0515,-4.054,-4.0542,-4.0583,-4.0604,-4.0556,-4.058,-4.059,-4.0633,-4.067,-4.0697,-4.0769,-4.0749,-4.0781,-4.0757,-4.0852,-4.0761,-4.0774,-4.0758,-4.0756,-4.0761,-4.0871,-4.0874,-4.0877,-4.0879,0,-4.0694,-4.0675,-4.0706,-4.0733,-4.0759,-4.0778,-4.0791,-4.0816,-4.0767,-4.0798,-4.084,-4.0862,-4.0904,-4.0942,-4.0968,-4.0966,-4.0915,-4.0908,-4.0928,-4.0944,-4.0955,-4.095,-4.0657,-4.0902,-4.0899,-4.0898,-4.0896,-4.0895,-4.0862,-4.0909,-4.0909,-4.0947,-4.0953,-4.0967,-4.1008,-4.0992,-4.1027,-4.1057,-4.1027,-4.1079,-4.1084,-4.1112,-4.1117,-4.1158,-4.1118,-4.1148,-4.1155,-4.1163,-4.1175,-4.0949,-4.1162,-4.1162,-4.1161,-4.1161,-4.116,0,-4.1084,-4.1081,-4.1116,-4.1138,-4.1168,-4.1117,-4.113,-4.1159,-4.1206,-4.1214,-4.1242,-4.1292,-4.1329,-4.1313,-4.1346,-4.1382,-4.1359,-4.1392,-4.1389,-4.139,-4.1209,-4.1188,-4.141,-4.141,-4.141,-4.141,-4.1409,-4.1409,-4.1203,-4.1278,-4.126,-4.1338,-4.1334,-4.1385,-4.1397,-4.141,-4.1416,-4.1475,-4.1505,-4.1495,-4.1493,-4.1526,-4.1558,-4.1552,-4.1568,-4.1609,-4.1595,-4.1427,-4.1402,-4.1379,-4.1359,-4.1613,-4.1613,-4.1773,-4.1774,-4.1775]},{"header":{"parameterUnit":"m.s-1","parameterCategory":1,"la1":30.2991,"la2":30.254,"lo1":-89.0895,"lo2":-89.0444,"dy":0.0017,"dx":0.0017,"nx":28,"ny":28,"refTime":"2023-10-23T03:00:00:Z","depth":0,"parameterNumber":3,"parameterNumberName":"V-component_of_WINDS"},"data":[0,0,0,0,0,0,0,0,0,0,0,0,0,0,0,0,0,0,0,0,0,0,0,0,0,0,0,0,0,0,0,0,0,0,0,0,0,0,0,0,0,0,0,0,0,0,0,0,0,0,0,0,0,0,0,0,0,0,1.1076,1.1075,0,1.093,1.0928,1.0926,1.0811,1.081,1.0808,1.0807,1.0657,1.0654,1.0651,0,0,0,0,0,0,0,0,0,0,0,0,0,1.1258,1.1255,1.1076,1.1074,1.1073,1.093,1.0928,1.0926,1.0811,1.081,1.0808,1.0807,1.0658,1.0655,1.0651,0,0,0,0,0,0,0,0,0,0,0,0,0,1.1152,1.1254,1.1077,1.0998,1.099,1.093,1.0928,1.0925,1.0811,1.081,1.0808,1.0806,1.0659,1.0655,1.0651,1.0657,0,0,1.0637,1.0635,0,0,0,0,0,0,0,0,1.1158,1.1145,1.1011,1.1003,1.0994,1.0887,1.0936,1.0835,1.0812,1.0879,1.0807,1.0805,1.0735,1.0724,1.07,1.065,1.0644,1.0637,1.0634,1.0632,1.0631,0,0,0,0,0,0,0,1.1165,1.1151,1.1018,1.101,1.0999,1.097,1.0954,1.0917,1.0818,1.0873,1.0864,1.0848,1.073,1.0705,1.0696,1.0642,1.0637,1.0633,1.063,1.0629,1.0591,1.0593,0,0,0,0,0,0,1.1185,1.1158,1.1023,1.1014,1.1073,1.0969,1.095,1.0923,1.0818,1.0801,1.085,1.0844,1.0713,1.0701,1.069,1.0692,1.0632,1.0628,1.0626,1.0589,1.0591,1.0593,0,0,0,0,0,0,1.1189,1.1174,1.1029,1.1083,1.1063,1.0967,1.0938,1.0921,1.0896,1.0801,1.0783,1.0843,1.0712,1.0697,1.0667,1.0685,1.0626,1.0622,1.0587,1.059,1.0592,1.0695,0,0,0,0,0,0,1.1195,1.1176,1.1178,1.1084,1.106,1.1008,1.0939,1.0919,1.0888,1.0879,1.0789,1.0773,1.0709,1.0674,1.0662,1.0678,1.0619,1.0585,1.0589,1.0591,1.069,1.0701,1.071,0,0,0,0,0,1.1202,1.1212,1.1178,1.1163,1.106,1.1009,1.0995,1.0921,1.089,1.0891,1.083,1.0776,1.0685,1.0672,1.0658,1.0672,1.0584,1.0588,1.0591,1.0685,1.0699,1.071,0,0,0,0,0,0,1.1309,1.1198,1.1159,1.114,1.1085,1.099,1.0988,1.0938,1.089,1.0883,1.0794,1.0775,1.0755,1.071,1.0698,1.0674,1.0627,1.0629,1.0704,1.0716,1.0726,1.0737,1.0615,0,0,0,0,0,1.1331,1.1299,1.1203,1.1195,1.117,1.1084,1.1059,1.1007,1.0946,1.0922,1.0859,1.0803,1.0761,1.0736,1.0693,1.0683,1.0662,1.0686,1.0696,1.0705,1.0707,1.07,1.071,1.0605,1.0605,1.0605,0,0,1.1375,1.131,1.1295,1.1215,1.1166,1.1136,1.1065,1.1035,1.1011,1.0918,1.0886,1.0838,1.0769,1.075,1.0738,1.0712,1.0732,1.071,1.0718,1.0715,1.0705,1.0715,1.0724,1.0608,1.0607,1.0607,0,0,1.1439,1.1387,1.1375,1.1328,1.1255,1.1198,1.1196,1.1108,1.1073,1.1039,1.0969,1.094,1.087,1.0824,1.0792,1.0841,1.0789,1.0829,1.0883,1.0877,1.0885,1.0892,1.091,1.0918,1.0832,1.0832,1.0832,0,1.1503,1.1453,1.1375,1.1349,1.1316,1.1231,1.1219,1.1177,1.1094,1.1073,1.1046,1.0958,1.0905,1.0874,1.0886,1.0863,1.0857,1.0839,1.089,1.0896,1.0902,1.0918,1.0925,1.0837,1.0837,1.0836,1.0835,0,1.1535,1.1502,1.1501,1.1424,1.1391,1.1372,1.1292,1.1268,1.1219,1.1166,1.1134,1.1068,1.101,1.0999,1.0951,1.0962,1.0948,1.0907,1.0858,1.0918,1.0932,1.0938,1.0845,1.0843,1.0841,1.084,0,0,1.1662,1.1543,1.1544,1.1508,1.1422,1.1395,1.1373,1.1317,1.1299,1.1245,1.1225,1.1169,1.113,1.1094,1.104,1.1035,1.1079,1.0993,1.099,1.1012,1.1088,1.112,1.1128,1.1044,1.1045,1.1046,1.1094,0,1.1713,1.1668,1.1598,1.1576,1.1545,1.1465,1.1445,1.1391,1.1341,1.1308,1.1252,1.1214,1.1166,1.1143,1.1134,1.1075,1.1093,1.1071,1.1025,1.1024,1.1045,1.1135,1.1168,1.1217,1.1098,1.1099,1.11,0,1.1765,1.1717,1.1693,1.1611,1.1595,1.1579,1.1523,1.1492,1.1429,1.1393,1.1354,1.1295,1.1269,1.1225,1.1187,1.1174,1.1151,1.112,1.112,1.1113,1.1066,1.1131,1.123,1.1238,1.1107,1.1107,1.1106,0,1.1861,1.179,1.1766,1.1738,1.1642,1.1633,1.1592,1.1528,1.1499,1.145,1.1431,1.1379,1.1351,1.1313,1.1243,1.1218,1.1214,1.1164,1.1184,1.1186,1.1186,1.1187,1.1284,1.1171,1.1171,1.1171,1.1171,0,1.1925,1.1914,1.1808,1.1794,1.1779,1.1699,1.1686,1.1638,1.1582,1.1557,1.1484,1.1463,1.1372,1.134,1.1285,1.1263,1.125,1.1221,1.1207,1.1228,1.1232,1.1211,1.1206,1.1173,1.1173,1.1172,1.1172,0,1.2029,1.1958,1.1927,1.1839,1.1817,1.181,1.1734,1.1718,1.1664,1.1634,1.1622,1.1537,1.1496,1.1423,1.136,1.1324,1.1313,1.1288,1.1334,1.1325,1.1349,1.1349,1.1437,1.1444,1.1328,1.1329,1.133,0,1.2075,1.2065,1.1976,1.1954,1.1916,1.1882,1.1853,1.1774,1.1747,1.1676,1.1668,1.1621,1.1579,1.1517,1.1451,1.1403,1.1377,1.1411,1.1369,1.1391,1.1378,1.138,1.1379,1.1421,1.1422,1.1424,1.1425,0,1.2164,1.213,1.209,1.2039,1.2007,1.1962,1.1914,1.1901,1.1811,1.1784,1.1741,1.1709,1.1646,1.1601,1.1544,1.1502,1.1449,1.1439,1.1441,1.1462,1.149,1.1476,1.1361,1.1437,1.1436,1.1435,1.1434,1.1434,1.224,1.2228,1.2164,1.2123,1.2079,1.2036,1.2016,1.1961,1.1924,1.1866,1.1822,1.1783,1.1722,1.164,1.1602,1.157,1.1545,1.1548,1.1549,1.1551,1.156,1.1495,1.1559,1.1559,1.1559,1.1558,1.1558,0,1.2326,1.2281,1.2244,1.218,1.2148,1.2101,1.2046,1.2023,1.1989,1.1937,1.1898,1.1849,1.1806,1.1736,1.1687,1.1675,1.165,1.1665,1.1665,1.1657,1.1584,1.1588,1.1687,1.1687,1.1687,1.1687,1.1687,1.1687,1.2367,1.2344,1.2302,1.2257,1.2211,1.2173,1.2146,1.2106,1.2064,1.2013,1.1977,1.1932,1.1873,1.1819,1.1777,1.1758,1.1743,1.1767,1.174,1.1674,1.1662,1.165,1.1653,1.1764,1.1764,1.1815,1.1816,1.1816]}]]